This demonstration page uses our WeatherBlox Daily Observations layout. Learn more.

Left ArrowRight Arrow

39.92423, -83.80882

Hourly Observations for November 25, 2015

Temp ( °F °C ) Dew Point ( °F °C ) Humidity (%) Winds ( mph kmh ) Pressure ( in mb ) Visibility ( mi km ) Precip ( " mm )
12:56 am 00:56 Clear 35 1.6 29 -1.6 80 80 ESE 8 13 30.41 1030 10 16.0934 0 0
1:56 am 01:56 Clear 35 1.6 30 -1.1 82 82 SE 9 15 30.42 1030 10 16.0934 0 0
2:56 am 02:56 Clear 34 1.1 29 -1.6 82 82 SE 6 9 30.42 1030 10 16.0934 0 0
3:56 am 03:56 Clear 32 0 28 -2.2 85 85 ESE 7 11 30.43 1031 10 16.0934 0 0
4:56 am 04:56 Clear 30 -1.1 27 -2.7 89 89 ESE 7 11 30.44 1031 10 16.0934 0 0
5:56 am 05:56 Clear 30 -1.1 27 -2.7 89 89 ESE 6 9 30.45 1031 10 16.0934 0 0
6:56 am 06:56 Clear 31 -0.5 28 -2.2 88 88 SE 6 9 30.47 1032 10 16.0934 0 0
7:56 am 07:56 Sunny 32 0 28 -2.2 85 85 SE 7 11 30.48 1032 10 16.0934 0 0
8:56 am 08:56 Sunny 40 4.4 32 0 73 73 SE 8 13 30.48 1032 10 16.0934 0 0
9:56 am 09:56 Sunny 46 7.7 34 1.1 63 63 SSE 8 13 30.49 1033 10 16.0934 0 0
10:56 am 10:56 Sunny 53 11.6 34 1.1 49 49 S 8 13 30.48 1032 10 16.0934 0 0
11:56 am 11:56 Sunny 56 13.3 33 0.5 42 42 S 8 13 30.48 1032 10 16.0934 0 0
12:56 pm 12:56 Sunny 59 15 31 -0.5 35 35 S 12 19 30.45 1031 10 16.0934 0 0
1:56 pm 13:56 Sunny 60 15.5 30 -1.1 32 32 S 10 17 30.42 1030 10 16.0934 0 0
2:56 pm 14:56 Sunny 59 15 29 -1.6 32 32 S 13 20 30.4 1029 10 16.0934 0 0
3:56 pm 15:56 Sunny 57 13.8 31 -0.5 38 38 SSE 13 20 30.38 1029 10 16.0934 0 0
4:56 pm 16:56 Sunny 54 12.2 31 -0.5 42 42 SSE 9 15 30.4 1029 10 16.0934 0 0
5:56 pm 17:56 Clear 50 10 32 0 50 50 SSE 7 11 30.42 1030 10 16.0934 0 0
6:56 pm 18:56 Clear 49 9.4 30 -1.1 48 48 SSE 8 13 30.44 1031 10 16.0934 0 0
7:56 pm 19:56 Clear 47 8.3 29 -1.6 50 50 SSE 8 13 30.45 1031 10 16.0934 0 0
8:56 pm 20:56 Clear 45 7.2 29 -1.6 54 54 SSE 7 11 30.44 1031 10 16.0934 0 0
9:56 pm 21:56 Clear 43 6.1 29 -1.6 58 58 SSE 7 11 30.45 1031 10 16.0934 0 0
10:56 pm 22:56 Mostly Cloudy 45 7.2 29 -1.6 54 54 SSE 7 11 30.45 1031 10 16.0934 0 0
11:56 pm 23:56 Clear 47 8.3 30 -1.1 52 52 S 8 13 30.46 1032 10 16.0934 0 0

Powered by AerisWeather